Time,TemperatureF,DewpointF,PressureIn,WindDirection,WindDirectionDegrees,WindSpeedMPH,WindSpeedGustMPH,Humidity,HourlyPrecipIn,Conditions,Clouds,dailyrainin,SolarRadiationWatts/m^2,SoftwareType,DateUTC
2013-09-10 00:02:00,49.0,47.0,-100.00,East,93,6.0,9.0,94,0.00,,,-99.99,0.000000,,2013-09-10 08:02:00,
2013-09-10 00:11:00,49.0,47.0,-100.00,East,93,6.0,9.0,94,0.00,,,-99.99,0.000000,,2013-09-10 08:11:00,
2013-09-10 00:22:00,49.0,47.0,-100.00,East,93,6.0,9.0,94,0.00,,,-99.99,0.000000,,2013-09-10 08:22:00,
2013-09-10 00:52:00,48.0,47.0,-100.00,ESE,121,4.0,7.0,96,0.00,,,0.01,0.000000,,2013-09-10 08:52:00,
2013-09-10 01:02:00,48.0,47.0,-100.00,ESE,121,4.0,7.0,96,0.00,,,0.01,0.000000,,2013-09-10 09:02:00,
2013-09-10 01:11:00,48.0,47.0,-100.00,ESE,121,4.0,7.0,96,0.00,,,0.01,0.000000,,2013-09-10 09:11:00,
2013-09-10 01:21:00,48.0,47.0,-100.00,ESE,121,4.0,7.0,96,0.00,,,0.01,0.000000,,2013-09-10 09:21:00,
2013-09-10 01:54:00,49.0,45.0,-100.00,East,88,4.0,9.0,85,0.00,,,0.01,0.000000,,2013-09-10 09:54:00,
2013-09-10 02:03:00,49.0,45.0,-100.00,East,88,4.0,9.0,85,0.00,,,0.01,0.000000,,2013-09-10 10:03:00,
2013-09-10 02:13:00,49.0,45.0,-100.00,East,88,4.0,9.0,85,0.00,,,0.01,0.000000,,2013-09-10 10:13:00,
2013-09-10 02:23:00,49.0,45.0,-100.00,East,88,4.0,9.0,85,0.00,,,0.01,0.000000,,2013-09-10 10:23:00,
2013-09-10 02:53:00,45.0,45.0,-100.00,East,92,3.0,6.0,100,0.00,,,0.00,0.000000,,2013-09-10 10:53:00,
2013-09-10 03:03:00,45.0,45.0,-100.00,East,92,3.0,6.0,100,0.00,,,0.00,0.000000,,2013-09-10 11:03:00,
2013-09-10 03:12:00,45.0,45.0,-100.00,East,92,3.0,6.0,100,0.00,,,0.00,0.000000,,2013-09-10 11:12:00,
2013-09-10 03:22:00,45.0,45.0,-100.00,East,92,3.0,6.0,100,0.00,,,0.00,0.000000,,2013-09-10 11:22:00,
2013-09-10 05:52:00,47.0,42.0,-100.00,WSW,246,2.0,10.0,83,-99.99,,,0.00,0.000000,,2013-09-10 13:52:00,
2013-09-10 06:02:00,47.0,42.0,-100.00,WSW,246,2.0,10.0,83,-99.99,,,0.00,0.000000,,2013-09-10 14:02:00,
2013-09-10 06:11:00,47.0,42.0,-100.00,WSW,246,2.0,10.0,83,-99.99,,,0.00,0.000000,,2013-09-10 14:11:00,
2013-09-10 06:21:00,47.0,42.0,-100.00,WSW,246,2.0,10.0,83,-99.99,,,0.00,0.000000,,2013-09-10 14:21:00,
2013-09-10 06:52:00,44.0,44.0,-100.00,NNE,13,2.0,4.0,100,0.00,,,0.00,0.000000,,2013-09-10 14:52:00,
2013-09-10 07:02:00,44.0,44.0,-100.00,NNE,13,2.0,4.0,100,0.00,,,0.00,0.000000,,2013-09-10 15:02:00,
2013-09-10 07:11:00,44.0,44.0,-100.00,NNE,13,2.0,4.0,100,0.00,,,0.00,0.000000,,2013-09-10 15:11:00,
2013-09-10 07:22:00,44.0,44.0,-100.00,NNE,13,2.0,4.0,100,0.00,,,0.00,0.000000,,2013-09-10 15:22:00,
2013-09-10 07:54:00,42.0,42.0,-100.00,SE,137,2.0,4.0,100,0.00,,,0.00,5.000000,,2013-09-10 15:54:00,
2013-09-10 08:03:00,42.0,42.0,-100.00,SE,137,2.0,4.0,100,0.00,,,0.00,5.000000,,2013-09-10 16:03:00,
2013-09-10 08:12:00,42.0,42.0,-100.00,SE,137,2.0,4.0,100,0.00,,,0.00,5.000000,,2013-09-10 16:12:00,
2013-09-10 08:23:00,42.0,42.0,-100.00,SE,137,2.0,4.0,100,0.00,,,0.00,5.000000,,2013-09-10 16:23:00,
2013-09-10 08:53:00,45.0,45.0,-100.00,NW,312,2.0,5.0,100,0.00,,,0.00,35.000000,,2013-09-10 16:53:00,
2013-09-10 09:03:00,45.0,45.0,-100.00,NW,312,2.0,5.0,100,0.00,,,0.00,35.000000,,2013-09-10 17:03:00,
2013-09-10 09:12:00,45.0,45.0,-100.00,NW,312,2.0,5.0,100,0.00,,,0.00,35.000000,,2013-09-10 17:12:00,
2013-09-10 09:23:00,45.0,45.0,-100.00,NW,312,2.0,5.0,100,0.00,,,0.00,35.000000,,2013-09-10 17:23:00,
2013-09-10 09:52:00,55.0,46.0,-100.00,ESE,111,3.0,6.0,72,0.00,,,0.00,163.000000,,2013-09-10 17:52:00,
2013-09-10 10:02:00,55.0,46.0,-100.00,ESE,111,3.0,6.0,72,0.00,,,0.00,163.000000,,2013-09-10 18:02:00,
2013-09-10 10:12:00,55.0,46.0,-100.00,ESE,111,3.0,6.0,72,0.00,,,0.00,163.000000,,2013-09-10 18:12:00,
2013-09-10 10:21:00,55.0,46.0,-100.00,ESE,111,3.0,6.0,72,0.00,,,0.00,163.000000,,2013-09-10 18:21:00,
2013-09-10 10:52:00,59.0,48.0,-100.00,East,88,6.0,8.0,68,0.00,,,0.00,226.000000,,2013-09-10 18:52:00,
2013-09-10 11:02:00,59.0,48.0,-100.00,East,88,6.0,8.0,68,0.00,,,0.00,226.000000,,2013-09-10 19:02:00,
2013-09-10 11:11:00,59.0,48.0,-100.00,East,88,6.0,8.0,68,0.00,,,0.00,226.000000,,2013-09-10 19:11:00,
2013-09-10 11:21:00,59.0,48.0,-100.00,East,88,6.0,8.0,68,0.00,,,0.00,226.000000,,2013-09-10 19:21:00,
2013-09-10 11:52:00,62.0,45.0,-100.00,ESE,106,4.0,9.0,54,0.00,,,0.00,348.000000,,2013-09-10 19:52:00,
2013-09-10 12:02:00,62.0,45.0,-100.00,ESE,106,4.0,9.0,54,0.00,,,0.00,348.000000,,2013-09-10 20:02:00,
2013-09-10 12:11:00,62.0,45.0,-100.00,ESE,106,4.0,9.0,54,0.00,,,0.00,348.000000,,2013-09-10 20:11:00,
2013-09-10 12:21:00,62.0,45.0,-100.00,ESE,106,4.0,9.0,54,0.00,,,0.00,348.000000,,2013-09-10 20:21:00,
2013-09-10 12:52:00,66.0,45.0,-100.00,ESE,120,4.0,7.0,46,0.00,,,0.00,443.000000,,2013-09-10 20:52:00,
2013-09-10 13:02:00,66.0,45.0,-100.00,ESE,120,4.0,7.0,46,0.00,,,0.00,443.000000,,2013-09-10 21:02:00,
2013-09-10 13:11:00,66.0,45.0,-100.00,ESE,120,4.0,7.0,46,0.00,,,0.00,443.000000,,2013-09-10 21:11:00,
2013-09-10 13:22:00,66.0,45.0,-100.00,ESE,120,4.0,7.0,46,0.00,,,0.00,443.000000,,2013-09-10 21:22:00,
2013-09-10 13:54:00,68.0,45.0,-100.00,ESE,122,3.0,7.0,44,0.00,,,0.00,432.000000,,2013-09-10 21:54:00,
2013-09-10 14:04:00,68.0,45.0,-100.00,ESE,122,3.0,7.0,44,0.00,,,0.00,432.000000,,2013-09-10 22:04:00,
2013-09-10 14:13:00,68.0,45.0,-100.00,ESE,122,3.0,7.0,44,0.00,,,0.00,432.000000,,2013-09-10 22:13:00,
2013-09-10 14:24:00,68.0,45.0,-100.00,ESE,122,3.0,7.0,44,0.00,,,0.00,432.000000,,2013-09-10 22:24:00,
2013-09-10 14:54:00,69.0,43.0,-100.00,East,80,5.0,9.0,39,0.00,,,0.00,497.000000,,2013-09-10 22:54:00,
2013-09-10 15:03:00,69.0,43.0,-100.00,East,80,5.0,9.0,39,0.00,,,0.00,497.000000,,2013-09-10 23:03:00,
2013-09-10 15:13:00,69.0,43.0,-100.00,East,80,5.0,9.0,39,0.00,,,0.00,497.000000,,2013-09-10 23:13:00,
2013-09-10 15:22:00,69.0,43.0,-100.00,East,80,5.0,9.0,39,0.00,,,0.00,497.000000,,2013-09-10 23:22:00,
2013-09-10 15:53:00,72.0,44.0,-100.00,East,101,5.0,10.0,36,0.00,,,0.00,482.000000,,2013-09-10 23:53:00,
2013-09-10 16:02:00,72.0,44.0,-100.00,East,101,5.0,10.0,36,0.00,,,0.00,482.000000,,2013-09-11 00:02:00,
2013-09-10 16:11:00,72.0,44.0,-100.00,East,101,5.0,10.0,36,0.00,,,0.00,482.000000,,2013-09-11 00:11:00,
2013-09-10 16:22:00,72.0,44.0,-100.00,East,101,5.0,10.0,36,0.00,,,0.00,482.000000,,2013-09-11 00:22:00,
2013-09-10 16:52:00,72.0,43.0,-100.00,ESE,105,4.0,9.0,35,0.00,,,0.00,499.000000,,2013-09-11 00:52:00,
2013-09-10 17:02:00,72.0,43.0,-100.00,ESE,105,4.0,9.0,35,0.00,,,0.00,499.000000,,2013-09-11 01:02:00,
2013-09-10 17:11:00,72.0,43.0,-100.00,ESE,105,4.0,9.0,35,0.00,,,0.00,499.000000,,2013-09-11 01:11:00,
2013-09-10 17:21:00,72.0,43.0,-100.00,ESE,105,4.0,9.0,35,0.00,,,0.00,499.000000,,2013-09-11 01:21:00,
2013-09-10 17:53:00,69.0,44.0,-100.00,SE,131,3.0,6.0,41,0.00,,,0.00,238.000000,,2013-09-11 01:53:00,
2013-09-10 18:02:00,69.0,44.0,-100.00,SE,131,3.0,6.0,41,0.00,,,0.00,238.000000,,2013-09-11 02:02:00,
2013-09-10 18:11:00,69.0,44.0,-100.00,SE,131,3.0,6.0,41,0.00,,,0.00,238.000000,,2013-09-11 02:11:00,
2013-09-10 18:22:00,69.0,44.0,-100.00,SE,131,3.0,6.0,41,0.00,,,0.00,238.000000,,2013-09-11 02:22:00,
2013-09-10 18:52:00,64.0,43.0,-100.00,SSE,162,7.0,12.0,47,0.00,,,0.00,128.000000,,2013-09-11 02:52:00,
2013-09-10 19:02:00,64.0,43.0,-100.00,SSE,162,7.0,12.0,47,0.00,,,0.00,128.000000,,2013-09-11 03:02:00,
2013-09-10 19:12:00,64.0,43.0,-100.00,SSE,162,7.0,12.0,47,0.00,,,0.00,128.000000,,2013-09-11 03:12:00,
2013-09-10 19:22:00,64.0,43.0,-100.00,SSE,162,7.0,12.0,47,0.00,,,0.00,128.000000,,2013-09-11 03:22:00,
2013-09-10 19:54:00,61.0,46.0,-100.00,SSE,155,4.0,9.0,57,0.00,,,0.00,51.000000,,2013-09-11 03:54:00,
2013-09-10 20:04:00,61.0,46.0,-100.00,SSE,155,4.0,9.0,57,0.00,,,0.00,51.000000,,2013-09-11 04:04:00,
2013-09-10 20:14:00,61.0,46.0,-100.00,SSE,155,4.0,9.0,57,0.00,,,0.00,51.000000,,2013-09-11 04:14:00,
2013-09-10 20:24:00,61.0,46.0,-100.00,SSE,155,4.0,9.0,57,0.00,,,0.00,51.000000,,2013-09-11 04:24:00,
2013-09-10 20:54:00,58.0,45.0,-100.00,SSE,149,2.0,8.0,63,0.00,,,0.00,9.000000,,2013-09-11 04:54:00,
2013-09-10 21:03:00,58.0,45.0,-100.00,SSE,149,2.0,8.0,63,0.00,,,0.00,9.000000,,2013-09-11 05:03:00,
2013-09-10 21:12:00,58.0,45.0,-100.00,SSE,149,2.0,8.0,63,0.00,,,0.00,9.000000,,2013-09-11 05:12:00,
2013-09-10 21:22:00,58.0,45.0,-100.00,SSE,149,2.0,8.0,63,0.00,,,0.00,9.000000,,2013-09-11 05:22:00,
2013-09-10 21:53:00,56.0,51.0,-100.00,ESE,109,3.0,5.0,83,0.00,,,0.00,2.000000,,2013-09-11 05:53:00,
2013-09-10 22:02:00,56.0,51.0,-100.00,ESE,109,3.0,5.0,83,0.00,,,0.00,2.000000,,2013-09-11 06:02:00,
2013-09-10 22:12:00,56.0,51.0,-100.00,ESE,109,3.0,5.0,83,0.00,,,0.00,2.000000,,2013-09-11 06:12:00,
2013-09-10 22:21:00,56.0,51.0,-100.00,ESE,109,3.0,5.0,83,0.00,,,0.00,2.000000,,2013-09-11 06:21:00,
2013-09-10 22:52:00,53.0,51.0,-100.00,SE,136,2.0,8.0,94,0.00,,,0.00,0.000000,,2013-09-11 06:52:00,
2013-09-10 23:01:00,53.0,51.0,-100.00,SE,136,2.0,8.0,94,0.00,,,0.00,0.000000,,2013-09-11 07:01:00,
2013-09-10 23:12:00,53.0,51.0,-100.00,SE,136,2.0,8.0,94,0.00,,,0.00,0.000000,,2013-09-11 07:12:00,
2013-09-10 23:23:00,53.0,51.0,-100.00,SE,136,2.0,8.0,94,0.00,,,0.00,0.000000,,2013-09-11 07:23:00,
2013-09-10 23:52:00,49.0,49.0,-100.00,NE,43,3.0,5.0,100,0.00,,,0.00,0.000000,,2013-09-11 07:52:00,